Starlink 30766

operational
NORAD ID: 58125 Int'l Des: 2023-162 Owner: SPXS Country: US Constellation: starlink
LEOCIRCULAR

About Starlink 30766

Description loading...

Live Position

Loading 3D Globe...

Upcoming Passes

Altitude History

Altitude vs Time

uPlot chart will show altitude changes over time

Two-Line Element Set

1 58125U 23162H 25304.20954737 .00000565 00000-0 56889-4 0 9992
2 58125 43.0036 116.5779 0001132 250.2944 109.7776 15.02537227112823
Epoch: Oct 31, 2025 • Age: 15 hours

Current Status

Altitude 559.9 km
Velocity 7.58 km/s
Sub-Earth Point -8.09°S, 42.1°W
Launch Date Oct 22, 2023
Age 2 years
Type internet

Technical Details

Classification Payload
Mass 730.00 kg
Dry Mass 700.00 kg
Total Mass 730.00 kg
Length 0.30 m
Diameter 4.10 m
Span 29.00 m
Shape Box + pan
Manufacturer SPXS
Bus Type Starlink V2M
Phase Status In Orbit
Owner/State SPXS/US

Large Constellations

Loading constellations...